Data No.,UTC Date,UTC Time,Latitude,Longitude,Course(deg),Temp(degC),Sal(psu)
6907,2003/1/13,19:15:00,00-00.1100N,151-07.3700E,328,29.465,34.115
6908,2003/1/13,19:16:00,00-00.3600N,151-07.2200E,328,29.466,34.1164
6909,2003/1/13,19:17:00,00-00.5600N,151-07.0900E,328,29.475,34.119
6910,2003/1/13,19:18:00,00-00.7500N,151-06.9700E,328,29.475,34.1186
6911,2003/1/13,19:19:00,00-00.9400N,151-06.8600E,328,29.481,34.1144
6912,2003/1/13,19:20:00,00-01.1400N,151-06.7400E,329,29.488,34.1132
6913,2003/1/13,19:21:00,00-01.3200N,151-06.6300E,328,29.496,34.1192
6914,2003/1/13,19:22:00,00-01.5200N,151-06.5100E,328,29.51,34.121
6915,2003/1/13,19:23:00,00-01.7400N,151-06.3700E,328,29.518,34.1333
6916,2003/1/13,19:24:00,00-01.9400N,151-06.2500E,329,29.524,34.1428
6917,2003/1/13,19:25:00,00-02.1100N,151-06.1500E,328,29.527,34.1491
6918,2003/1/13,19:26:00,00-02.2800N,151-06.0500E,329,29.558,34.1487
6919,2003/1/13,19:27:00,00-02.4900N,151-05.9200E,328,29.59,34.1699
6920,2003/1/13,19:28:00,00-02.7100N,151-05.7800E,328,29.609,34.1994
6921,2003/1/13,19:29:00,00-02.9300N,151-05.6500E,329,29.613,34.2265
6922,2003/1/13,19:30:00,00-03.0900N,151-05.5500E,329,29.633,34.2349
6923,2003/1/13,19:31:00,00-03.3300N,151-05.4100E,329,29.655,34.2452
6924,2003/1/13,19:32:00,00-03.5400N,151-05.2900E,329,29.664,34.264
6925,2003/1/13,19:33:00,00-03.7400N,151-05.1700E,328,29.678,34.2785
6926,2003/1/13,19:34:00,00-03.9100N,151-05.0700E,328,29.691,34.2933
6927,2003/1/13,19:35:00,00-04.0800N,151-04.9600E,328,29.706,34.3039
6928,2003/1/13,19:36:00,00-04.2700N,151-04.8500E,330,29.721,34.3231
6929,2003/1/13,19:37:00,00-04.4600N,151-04.7400E,329,29.749,34.3443
6930,2003/1/13,19:38:00,00-04.6500N,151-04.6200E,329,29.762,34.366
6931,2003/1/13,19:39:00,00-04.8900N,151-04.4900E,330,29.776,34.3854
6934,2003/1/13,19:42:00,00-05.5100N,151-04.1200E,329,29.751,34.3918
6935,2003/1/13,19:43:00,00-05.6600N,151-04.0400E,328,29.741,34.381
6936,2003/1/13,19:44:00,00-05.8500N,151-03.9200E,328,29.73,34.3663
6937,2003/1/13,19:45:00,00-06.1500N,151-03.7400E,329,29.723,34.3556
6938,2003/1/13,19:46:00,00-06.3300N,151-03.6500E,329,29.72,34.346
6939,2003/1/13,19:47:00,00-06.5500N,151-03.5100E,329,29.734,34.3475
6940,2003/1/13,19:48:00,00-06.7600N,151-03.3900E,329,29.741,34.3529
6941,2003/1/13,19:49:00,00-06.9100N,151-03.3100E,329,29.749,34.3613
6942,2003/1/13,19:50:00,00-07.1500N,151-03.1600E,329,29.763,34.3651
6943,2003/1/13,19:51:00,00-07.3500N,151-03.0500E,330,29.773,34.3749
6944,2003/1/13,19:52:00,00-07.5300N,151-02.9400E,330,29.784,34.3816
6945,2003/1/13,19:53:00,00-07.7500N,151-02.8100E,329,29.799,34.3886
6946,2003/1/13,19:54:00,00-07.8800N,151-02.7300E,328,29.808,34.3988
6947,2003/1/13,19:55:00,00-08.1500N,151-02.5800E,329,29.79,34.4101
6948,2003/1/13,19:56:00,00-08.3300N,151-02.4700E,328,29.792,34.4127
6949,2003/1/13,19:57:00,00-08.5200N,151-02.3500E,329,29.802,34.4171
6950,2003/1/13,19:58:00,00-08.7300N,151-02.2300E,329,29.803,34.4281
6951,2003/1/13,19:59:00,00-08.9000N,151-02.1300E,328,29.799,34.4276
6952,2003/1/13,20:00:00,00-09.1200N,151-02.0000E,329,29.778,34.4313
6953,2003/1/13,20:01:00,00-09.2900N,151-01.8900E,329,29.764,34.4281
6954,2003/1/13,20:02:00,00-09.4900N,151-01.7700E,327,29.786,34.4217
6955,2003/1/13,20:03:00,00-09.7200N,151-01.6300E,328,29.78,34.4286
6956,2003/1/13,20:04:00,00-09.9000N,151-01.5200E,328,29.767,34.4248
6957,2003/1/13,20:05:00,00-10.1200N,151-01.3900E,328,29.743,34.4281
6958,2003/1/13,20:06:00,00-10.2300N,151-01.3200E,328,29.763,34.4003
6959,2003/1/13,20:07:00,00-10.5100N,151-01.1600E,328,29.781,34.4004
6960,2003/1/13,20:08:00,00-10.6700N,151-01.0600E,328,29.776,34.4128
6961,2003/1/13,20:09:00,00-10.8900N,151-00.9300E,328,29.783,34.4244
6962,2003/1/13,20:10:00,00-11.1000N,151-00.8000E,328,29.771,34.425
6963,2003/1/13,20:11:00,00-11.2900N,151-00.6900E,328,29.777,34.4252
6964,2003/1/13,20:12:00,00-11.4900N,151-00.5600E,329,29.781,34.3758
6965,2003/1/13,20:13:00,00-11.6100N,151-00.4900E,329,29.764,34.436
6966,2003/1/13,20:14:00,00-11.8900N,151-00.3300E,328,29.776,34.4341
6967,2003/1/13,20:15:00,00-11.9100N,151-00.3200E,329,29.778,34.4299
6969,2003/1/13,20:17:00,00-12.3900N,151-00.0300E,329,29.787,34.4368
6970,2003/1/13,20:18:00,00-12.6600N,150-59.8600E,328,29.791,34.4396
6971,2003/1/13,20:19:00,00-12.7700N,150-59.8000E,327,29.795,34.4475
6972,2003/1/13,20:20:00,00-13.0400N,150-59.6300E,328,29.777,34.4511
6973,2003/1/13,20:21:00,00-13.2500N,150-59.5000E,327,29.783,34.449
6974,2003/1/13,20:22:00,00-13.4500N,150-59.3800E,329,29.791,34.4384
6975,2003/1/13,20:23:00,00-13.6200N,150-59.2800E,328,29.797,34.4419
6976,2003/1/13,20:24:00,00-13.8400N,150-59.1400E,327,29.798,34.4432
6977,2003/1/13,20:25:00,00-14.0300N,150-59.0200E,328,29.789,34.4506
6978,2003/1/13,20:26:00,00-14.2400N,150-58.8900E,329,29.784,34.4558
6979,2003/1/13,20:27:00,00-14.3900N,150-58.8000E,328,29.745,34.4543
6980,2003/1/13,20:28:00,00-14.6100N,150-58.6700E,328,29.757,34.4353
6981,2003/1/13,20:29:00,00-14.7800N,150-58.5600E,329,29.77,34.4162
6982,2003/1/13,20:30:00,00-14.9700N,150-58.4500E,327,29.768,34.4187
6983,2003/1/13,20:31:00,00-15.1800N,150-58.3100E,327,29.764,34.4248
6984,2003/1/13,20:32:00,00-15.3800N,150-58.1800E,327,29.772,34.4174
6985,2003/1/13,20:33:00,00-15.5700N,150-58.0700E,328,29.778,34.4208
6986,2003/1/13,20:34:00,00-15.7700N,150-57.9400E,328,29.77,34.4237
6987,2003/1/13,20:35:00,00-15.9700N,150-57.8200E,328,29.767,34.4279
6988,2003/1/13,20:36:00,00-16.1600N,150-57.7000E,328,29.771,34.4252
6989,2003/1/13,20:37:00,00-16.3200N,150-57.6000E,328,29.759,34.4244
6990,2003/1/13,20:38:00,00-16.5500N,150-57.4600E,327,29.761,34.4291
6991,2003/1/13,20:39:00,00-16.7400N,150-57.3400E,328,29.762,34.4233
6993,2003/1/13,20:41:00,00-17.1100N,150-57.1100E,326,29.753,34.4229
6994,2003/1/13,20:42:00,00-17.3200N,150-56.9800E,327,29.749,34.4172
6995,2003/1/13,20:43:00,00-17.4700N,150-56.8800E,326,29.739,34.4128
6996,2003/1/13,20:44:00,00-17.6700N,150-56.7500E,327,29.737,34.4093
6997,2003/1/13,20:45:00,00-17.8500N,150-56.6400E,328,29.549,34.4072
6998,2003/1/13,20:46:00,00-17.9100N,150-56.6000E,328,29.508,34.3322
7000,2003/1/13,20:48:00,00-18.4200N,150-56.2900E,327,29.534,34.1306
7001,2003/1/13,20:49:00,00-18.5400N,150-56.2100E,327,29.52,34.1227
7003,2003/1/13,20:51:00,00-18.9800N,150-55.9400E,328,29.529,34.0932
7004,2003/1/13,20:52:00,00-19.2100N,150-55.7900E,327,29.531,34.0884
7005,2003/1/13,20:53:00,00-19.3400N,150-55.7100E,327,29.537,34.084
7006,2003/1/13,20:54:00,00-19.6000N,150-55.5400E,327,29.551,34.0948
7007,2003/1/13,20:55:00,00-19.7700N,150-55.4400E,328,29.559,34.1055
7008,2003/1/13,20:56:00,00-19.9000N,150-55.3600E,328,29.565,34.1248
7009,2003/1/13,20:57:00,00-20.1800N,150-55.1800E,327,29.591,34.1333
7010,2003/1/13,20:58:00,00-20.3700N,150-55.0600E,326,29.575,34.1497
7011,2003/1/13,20:59:00,00-20.5600N,150-54.9400E,328,29.56,34.1582
7012,2003/1/13,21:00:00,00-20.7300N,150-54.8400E,328,29.552,34.1528
7013,2003/1/13,21:01:00,00-20.9000N,150-54.7300E,328,29.526,34.1423
7014,2003/1/13,21:02:00,00-21.1400N,150-54.5800E,328,29.545,34.133
7015,2003/1/13,21:03:00,00-21.2700N,150-54.5000E,327,29.542,34.1353
7016,2003/1/13,21:04:00,00-21.5200N,150-54.3500E,327,29.546,34.142
7017,2003/1/13,21:05:00,00-21.6900N,150-54.2400E,327,29.54,34.1439
7018,2003/1/13,21:06:00,00-21.8500N,150-54.1400E,328,29.546,34.1464
7019,2003/1/13,21:07:00,00-22.1000N,150-53.9900E,328,29.527,34.1528
7020,2003/1/13,21:08:00,00-22.2800N,150-53.8700E,327,29.524,34.1514
7021,2003/1/13,21:09:00,00-22.4200N,150-53.7800E,328,29.531,34.1426
7022,2003/1/13,21:10:00,00-22.6500N,150-53.6400E,328,29.531,34.1421
7023,2003/1/13,21:11:00,00-22.8900N,150-53.5000E,327,29.503,34.1501
7024,2003/1/13,21:12:00,00-23.0600N,150-53.3900E,326,29.508,34.1429
7025,2003/1/13,21:13:00,00-23.2700N,150-53.2500E,325,29.509,34.132
7026,2003/1/13,21:14:00,00-23.4700N,150-53.1200E,326,29.474,34.1345
7027,2003/1/13,21:15:00,00-23.6400N,150-53.0100E,328,29.467,34.1133
7028,2003/1/13,21:16:00,00-23.8200N,150-52.9000E,327,29.467,34.0867
7029,2003/1/13,21:17:00,00-24.0300N,150-52.7600E,327,29.463,34.08
7030,2003/1/13,21:18:00,00-24.2300N,150-52.6400E,328,29.464,34.0695
7031,2003/1/13,21:19:00,00-24.4300N,150-52.5100E,327,29.46,34.073
7033,2003/1/13,21:21:00,00-24.7300N,150-52.3300E,327,29.475,34.0701
7034,2003/1/13,21:22:00,00-24.9700N,150-52.1700E,326,29.476,34.0704
7035,2003/1/13,21:23:00,00-25.1100N,150-52.0800E,327,29.497,34.0801
7036,2003/1/13,21:24:00,00-25.3400N,150-51.9300E,328,29.503,34.0874
7037,2003/1/13,21:25:00,00-25.5900N,150-51.7800E,328,29.488,34.1079
7038,2003/1/13,21:26:00,00-25.7900N,150-51.6600E,328,29.474,34.108
7039,2003/1/13,21:27:00,00-25.9900N,150-51.5300E,327,29.49,34.1092
7040,2003/1/13,21:28:00,00-26.1800N,150-51.4100E,327,29.503,34.114
7041,2003/1/13,21:29:00,00-26.3500N,150-51.3100E,327,29.513,34.1409
7042,2003/1/13,21:30:00,00-26.5600N,150-51.1700E,326,29.517,34.1603
7043,2003/1/13,21:31:00,00-26.7400N,150-51.0500E,328,29.501,34.1611
7044,2003/1/13,21:32:00,00-26.9500N,150-50.9200E,327,29.503,34.1614
7045,2003/1/13,21:33:00,00-27.1500N,150-50.7900E,326,29.503,34.1652
7046,2003/1/13,21:34:00,00-27.3200N,150-50.6800E,326,29.513,34.1754
7047,2003/1/13,21:35:00,00-27.5300N,150-50.5400E,327,29.51,34.1883
7048,2003/1/13,21:36:00,00-27.6800N,150-50.4400E,326,29.476,34.1929
7049,2003/1/13,21:37:00,00-27.9300N,150-50.2900E,327,29.498,34.1768
7050,2003/1/13,21:38:00,00-28.1300N,150-50.1600E,326,29.472,34.176
7051,2003/1/13,21:39:00,00-28.2800N,150-50.0600E,327,29.499,34.1806
7052,2003/1/13,21:40:00,00-28.5300N,150-49.9100E,328,29.512,34.1873
7053,2003/1/13,21:41:00,00-28.6800N,150-49.8100E,327,29.517,34.2086
7054,2003/1/13,21:42:00,00-28.7500N,150-49.7600E,327,29.522,34.2157
7055,2003/1/13,21:43:00,00-29.0900N,150-49.5400E,327,29.555,34.2191
7056,2003/1/13,21:44:00,00-29.2900N,150-49.4100E,328,29.531,34.2341
7057,2003/1/13,21:45:00,00-29.4800N,150-49.2900E,327,29.509,34.2344
7058,2003/1/13,21:46:00,00-29.6900N,150-49.1600E,326,29.509,34.2158
7059,2003/1/13,21:47:00,00-29.8900N,150-49.0200E,326,29.506,34.2052
7060,2003/1/13,21:48:00,00-30.0700N,150-48.9100E,326,29.479,34.2055
7061,2003/1/13,21:49:00,00-30.2300N,150-48.8000E,326,29.477,34.1999
7062,2003/1/13,21:50:00,00-30.4700N,150-48.6400E,326,29.48,34.1891
7063,2003/1/13,21:51:00,00-30.6500N,150-48.5300E,328,29.481,34.1884
7064,2003/1/13,21:52:00,00-30.8300N,150-48.4100E,328,29.503,34.1874
7065,2003/1/13,21:53:00,00-31.0700N,150-48.2700E,328,29.492,34.1947
7066,2003/1/13,21:54:00,00-31.0900N,150-48.2600E,328,29.461,34.1966
7068,2003/1/13,21:56:00,00-31.6700N,150-47.8900E,328,29.449,34.1631
7069,2003/1/13,21:57:00,00-31.8800N,150-47.7600E,327,29.439,34.1587
7070,2003/1/13,21:58:00,00-32.0700N,150-47.6400E,328,29.438,34.154
7071,2003/1/13,21:59:00,00-32.2600N,150-47.5200E,328,29.458,34.1503
7072,2003/1/13,22:00:00,00-32.4700N,150-47.3900E,328,29.463,34.1491
7073,2003/1/13,22:01:00,00-32.6600N,150-47.2700E,327,29.465,34.1624
7074,2003/1/13,22:02:00,00-32.8500N,150-47.1500E,327,29.493,34.1628
7075,2003/1/13,22:03:00,00-33.0600N,150-47.0200E,328,29.503,34.1822
7076,2003/1/13,22:04:00,00-33.2600N,150-46.8900E,327,29.517,34.1805
7077,2003/1/13,22:05:00,00-33.4500N,150-46.7700E,328,29.513,34.211
7078,2003/1/13,22:06:00,00-33.6300N,150-46.6600E,327,29.595,34.2322
7079,2003/1/13,22:07:00,00-33.8200N,150-46.5400E,328,29.599,34.2671
7080,2003/1/13,22:08:00,00-34.0500N,150-46.4000E,328,29.576,34.3044
7081,2003/1/13,22:09:00,00-34.2200N,150-46.2900E,328,29.558,34.3032
7082,2003/1/13,22:10:00,00-34.4400N,150-46.1600E,327,29.55,34.305
7083,2003/1/13,22:11:00,00-34.6500N,150-46.0300E,327,29.567,34.3194
7084,2003/1/13,22:12:00,00-34.8500N,150-45.9000E,328,29.584,34.34
7085,2003/1/13,22:13:00,00-35.0500N,150-45.7800E,328,29.64,34.3713
7086,2003/1/13,22:14:00,00-35.2300N,150-45.6700E,327,29.683,34.4062
7087,2003/1/13,22:15:00,00-35.4400N,150-45.5400E,328,29.696,34.4474
7088,2003/1/13,22:16:00,00-35.6000N,150-45.4400E,328,29.7,34.4655
7089,2003/1/13,22:17:00,00-35.8300N,150-45.3000E,329,29.692,34.4716
7090,2003/1/13,22:18:00,00-35.9900N,150-45.2100E,327,29.669,34.4791
7091,2003/1/13,22:19:00,00-36.2500N,150-45.0400E,328,29.625,34.4722
7092,2003/1/13,22:20:00,00-36.4300N,150-44.9300E,328,29.549,34.4562
7093,2003/1/13,22:21:00,00-36.4600N,150-44.9200E,328,29.618,34.3805
7094,2003/1/13,22:22:00,00-36.8400N,150-44.6800E,327,29.602,34.3705
7095,2003/1/13,22:23:00,00-37.0500N,150-44.5500E,327,29.647,34.3758
7096,2003/1/13,22:24:00,00-37.2300N,150-44.4300E,328,29.65,34.3887
7097,2003/1/13,22:25:00,00-37.3800N,150-44.3400E,327,29.578,34.404
7098,2003/1/13,22:26:00,00-37.5600N,150-44.2200E,327,29.625,34.379
7099,2003/1/13,22:27:00,00-37.8400N,150-44.0500E,328,29.692,34.3628
7100,2003/1/13,22:28:00,00-37.9200N,150-44.0000E,327,29.719,34.42
7101,2003/1/13,22:29:00,00-38.2400N,150-43.8000E,328,29.698,34.4659
7102,2003/1/13,22:30:00,00-38.4300N,150-43.6900E,327,29.718,34.4646
7103,2003/1/13,22:31:00,00-38.6100N,150-43.5700E,327,29.714,34.4709
7104,2003/1/13,22:32:00,00-38.8300N,150-43.4300E,327,29.709,34.4859
7105,2003/1/13,22:33:00,00-39.0200N,150-43.3100E,328,29.706,34.4871
7106,2003/1/13,22:34:00,00-39.2300N,150-43.1900E,327,29.684,34.4865
7107,2003/1/13,22:35:00,00-39.4200N,150-43.0700E,327,29.703,34.4747
7108,2003/1/13,22:36:00,00-39.5900N,150-42.9600E,328,29.704,34.472
7109,2003/1/13,22:37:00,00-39.8300N,150-42.8100E,328,29.703,34.486
7110,2003/1/13,22:38:00,00-39.9100N,150-42.7600E,327,29.701,34.4913
7111,2003/1/13,22:39:00,00-40.2200N,150-42.5600E,327,29.703,34.492
7112,2003/1/13,22:40:00,00-40.4200N,150-42.4400E,328,29.705,34.4953
7113,2003/1/13,22:41:00,00-40.4800N,150-42.4000E,328,29.707,34.4987
7114,2003/1/13,22:42:00,00-40.7700N,150-42.2100E,327,29.705,34.4998
7115,2003/1/13,22:43:00,00-41.0100N,150-42.0700E,328,29.719,34.4955
7116,2003/1/13,22:44:00,00-41.1500N,150-41.9800E,327,29.804,34.5078
7117,2003/1/13,22:45:00,00-41.4100N,150-41.8100E,327,29.808,34.5268
7118,2003/1/13,22:46:00,00-41.5800N,150-41.7000E,327,29.794,34.4657
7119,2003/1/13,22:47:00,00-41.7900N,150-41.5700E,327,29.787,34.5413
7120,2003/1/13,22:48:00,00-42.0000N,150-41.4400E,327,29.811,34.5408
7121,2003/1/13,22:49:00,00-42.2100N,150-41.3100E,327,29.827,34.54
7122,2003/1/13,22:50:00,00-42.3800N,150-41.2000E,327,29.787,34.5417
7123,2003/1/13,22:51:00,00-42.5600N,150-41.0800E,328,29.727,34.5309
7125,2003/1/13,22:53:00,00-42.9400N,150-40.8400E,328,29.673,34.4676
7126,2003/1/13,22:54:00,00-43.1900N,150-40.6800E,326,29.714,34.4514
7127,2003/1/13,22:55:00,00-43.4100N,150-40.5400E,327,29.781,34.4534
7128,2003/1/13,22:56:00,00-43.6000N,150-40.4200E,327,29.776,34.5152
7129,2003/1/13,22:57:00,00-43.8000N,150-40.2900E,326,29.742,34.5436
7130,2003/1/13,22:58:00,00-43.9800N,150-40.1700E,326,29.723,34.5383
7131,2003/1/13,22:59:00,00-44.0800N,150-40.1100E,326,29.734,34.5185
7132,2003/1/13,23:00:00,00-44.3800N,150-39.9100E,327,29.729,34.5216
7133,2003/1/13,23:01:00,00-44.5900N,150-39.7800E,327,29.747,34.5271
7134,2003/1/13,23:02:00,00-44.7800N,150-39.6600E,327,29.763,34.5299
7136,2003/1/13,23:04:00,00-45.1300N,150-39.4400E,327,29.723,34.5481
7137,2003/1/13,23:05:00,00-45.3800N,150-39.2800E,327,29.726,34.5388
7138,2003/1/13,23:06:00,00-45.4200N,150-39.2500E,327,29.738,34.5247
7139,2003/1/13,23:07:00,00-45.7200N,150-39.0500E,326,29.73,34.5368
7140,2003/1/13,23:08:00,00-45.9700N,150-38.8900E,325,29.745,34.5369
7141,2003/1/13,23:09:00,00-46.1200N,150-38.7900E,326,29.749,34.5436
7142,2003/1/13,23:10:00,00-46.3600N,150-38.6300E,327,29.754,34.5573
7143,2003/1/13,23:11:00,00-46.5500N,150-38.5100E,327,29.761,34.5623
7144,2003/1/13,23:12:00,00-46.7500N,150-38.3800E,326,29.769,34.5682
7145,2003/1/13,23:13:00,00-46.9400N,150-38.2600E,326,29.775,34.5715
7146,2003/1/13,23:14:00,00-47.1400N,150-38.1300E,326,29.781,34.5738
7147,2003/1/13,23:15:00,00-47.3400N,150-38.0000E,325,29.785,34.58
7148,2003/1/13,23:16:00,00-47.4000N,150-37.9600E,325,29.732,34.585
7149,2003/1/13,23:17:00,00-47.7300N,150-37.7400E,326,29.69,34.571
7150,2003/1/13,23:18:00,00-47.9400N,150-37.6000E,327,29.717,34.5466
7151,2003/1/13,23:19:00,00-48.1200N,150-37.4800E,326,29.745,34.5473
7152,2003/1/13,23:20:00,00-48.3300N,150-37.3400E,325,29.758,34.5663
7153,2003/1/13,23:21:00,00-48.5300N,150-37.2100E,326,29.772,34.5832
7154,2003/1/13,23:22:00,00-48.7200N,150-37.0800E,326,29.773,34.5964
7155,2003/1/13,23:23:00,00-48.9200N,150-36.9500E,326,29.773,34.6052
7156,2003/1/13,23:24:00,00-49.0700N,150-36.8500E,326,29.775,34.6085
7157,2003/1/13,23:25:00,00-49.3300N,150-36.7000E,328,29.765,34.6153
7158,2003/1/13,23:26:00,00-49.4400N,150-36.6300E,329,29.754,34.6152
7159,2003/1/13,23:27:00,00-49.7400N,150-36.4500E,329,29.755,34.6112
7160,2003/1/13,23:28:00,00-49.9200N,150-36.3400E,328,29.739,34.6108
7161,2003/1/13,23:29:00,00-50.0900N,150-36.2400E,328,29.719,34.6114
7162,2003/1/13,23:30:00,00-50.3500N,150-36.0800E,328,29.724,34.6032
7164,2003/1/13,23:32:00,00-50.7500N,150-35.8400E,328,29.716,34.6052
7165,2003/1/13,23:33:00,00-50.9800N,150-35.7000E,329,29.715,34.6043
7166,2003/1/13,23:34:00,00-51.1900N,150-35.5800E,328,29.719,34.6071
7167,2003/1/13,23:35:00,00-51.3800N,150-35.4600E,327,29.713,34.6102
7168,2003/1/13,23:36:00,00-51.5900N,150-35.3300E,328,29.705,34.6093
7169,2003/1/13,23:37:00,00-51.7200N,150-35.2500E,328,29.698,34.608
7170,2003/1/13,23:38:00,00-51.9800N,150-35.0900E,329,29.701,34.6029
7171,2003/1/13,23:39:00,00-52.1800N,150-34.9700E,329,29.704,34.606
7172,2003/1/13,23:40:00,00-52.3700N,150-34.8600E,329,29.703,34.613
7173,2003/1/13,23:41:00,00-52.6100N,150-34.7100E,328,29.701,34.616
7174,2003/1/13,23:42:00,00-52.8100N,150-34.6000E,329,29.7,34.6177
7175,2003/1/13,23:43:00,00-53.0300N,150-34.4600E,329,29.697,34.6226
7176,2003/1/13,23:44:00,00-53.2400N,150-34.3400E,328,29.694,34.6238
7177,2003/1/13,23:45:00,00-53.4000N,150-34.2400E,328,29.689,34.6228
7178,2003/1/13,23:46:00,00-53.6600N,150-34.0900E,329,29.689,34.6223
7179,2003/1/13,23:47:00,00-53.8000N,150-34.0000E,329,29.689,34.6209
7180,2003/1/13,23:48:00,00-54.0400N,150-33.8600E,328,29.69,34.6186
7182,2003/1/13,23:50:00,00-54.5000N,150-33.5900E,329,29.695,34.6201
7183,2003/1/13,23:51:00,00-54.7000N,150-33.4800E,331,29.696,34.6212
7184,2003/1/13,23:52:00,00-54.8400N,150-33.4000E,330,29.692,34.6235
7185,2003/1/13,23:53:00,00-55.1300N,150-33.2300E,330,29.687,34.6243
7186,2003/1/13,23:54:00,00-55.3200N,150-33.1300E,331,29.688,34.6263
7187,2003/1/13,23:55:00,00-55.5500N,150-32.9900E,330,29.687,34.626
7188,2003/1/13,23:56:00,00-55.6900N,150-32.9100E,330,29.679,34.6253
7189,2003/1/13,23:57:00,00-55.9500N,150-32.7700E,330,29.681,34.6255
7190,2003/1/13,23:58:00,00-56.1800N,150-32.6400E,329,29.685,34.6246
7191,2003/1/13,23:59:00,00-56.3900N,150-32.5100E,330,29.69,34.6254
7192,2003/1/14,0:00:00,00-56.6000N,150-32.3900E,330,29.695,34.628
7193,2003/1/14,0:01:00,00-56.8000N,150-32.2800E,330,29.694,34.5787
7194,2003/1/14,0:02:00,00-57.0100N,150-32.1600E,330,29.685,34.6302
7196,2003/1/14,0:04:00,00-57.3600N,150-31.9600E,329,29.687,34.6274
7197,2003/1/14,0:05:00,00-57.6500N,150-31.7900E,330,29.687,34.6293
7198,2003/1/14,0:06:00,00-57.8300N,150-31.6900E,329,29.677,34.6315
7199,2003/1/14,0:07:00,00-58.0600N,150-31.5600E,329,29.67,34.629
7200,2003/1/14,0:08:00,00-58.2600N,150-31.4500E,328,29.663,34.6243
7201,2003/1/14,0:09:00,00-58.3600N,150-31.3800E,329,29.653,34.6187
7202,2003/1/14,0:10:00,00-58.6200N,150-31.2300E,329,29.641,34.6214
7203,2003/1/14,0:11:00,00-58.8600N,150-31.0900E,329,29.635,34.6174
7204,2003/1/14,0:12:00,00-59.0500N,150-30.9700E,328,29.613,34.6158
7205,2003/1/14,0:13:00,00-59.2300N,150-30.8700E,328,29.589,34.6126
7206,2003/1/14,0:14:00,00-59.4000N,150-30.7700E,328,29.584,34.6028
7207,2003/1/14,0:15:00,00-59.6500N,150-30.6100E,328,29.583,34.5821
7208,2003/1/14,0:16:00,00-59.9100N,150-30.4600E,328,29.583,34.5973
7210,2003/1/14,0:18:00,01-00.3400N,150-30.2000E,328,29.583,34.5981
7211,2003/1/14,0:19:00,01-00.5400N,150-30.0700E,329,29.584,34.5963
7212,2003/1/14,0:20:00,01-00.6200N,150-30.0300E,328,29.587,34.5965
7213,2003/1/14,0:21:00,01-00.9400N,150-29.8500E,330,29.583,34.5971
7214,2003/1/14,0:22:00,01-01.1400N,150-29.7200E,329,29.569,34.5964
7215,2003/1/14,0:23:00,01-01.3600N,150-29.5900E,328,29.549,34.5936
7216,2003/1/14,0:24:00,01-01.5400N,150-29.4900E,328,29.538,34.5867
7217,2003/1/14,0:25:00,01-01.6600N,150-29.4200E,329,29.531,34.584
7218,2003/1/14,0:26:00,01-01.9300N,150-29.2500E,329,29.523,34.5819
7219,2003/1/14,0:27:00,01-02.1900N,150-29.1000E,329,29.524,34.5822
7220,2003/1/14,0:28:00,01-02.3700N,150-29.0000E,329,29.532,34.5823
7221,2003/1/14,0:29:00,01-02.5900N,150-28.8700E,328,29.535,34.5852
7222,2003/1/14,0:30:00,01-02.7900N,150-28.7400E,327,29.534,34.5875
7223,2003/1/14,0:31:00,01-03.0000N,150-28.6200E,328,29.532,34.5887
7224,2003/1/14,0:32:00,01-03.1900N,150-28.5000E,328,29.52,34.5872
7226,2003/1/14,0:34:00,01-03.6300N,150-28.2400E,328,29.497,34.5854
7227,2003/1/14,0:35:00,01-03.7500N,150-28.1600E,328,29.487,34.5805
7228,2003/1/14,0:36:00,01-04.0200N,150-28.0000E,328,29.474,34.5762
7229,2003/1/14,0:37:00,01-04.2200N,150-27.8800E,329,29.47,34.5738
7230,2003/1/14,0:38:00,01-04.4400N,150-27.7500E,328,29.464,34.5745
7231,2003/1/14,0:39:00,01-04.6100N,150-27.6500E,328,29.464,34.5721
7232,2003/1/14,0:40:00,01-04.8500N,150-27.5000E,328,29.465,34.5706
7233,2003/1/14,0:41:00,01-05.0600N,150-27.3800E,328,29.474,34.5754
7234,2003/1/14,0:42:00,01-05.2600N,150-27.2500E,328,29.487,34.5781
7235,2003/1/14,0:43:00,01-05.4800N,150-27.1200E,327,29.49,34.5833
7236,2003/1/14,0:44:00,01-05.6700N,150-27.0000E,327,29.485,34.5858
7237,2003/1/14,0:45:00,01-05.8800N,150-26.8700E,328,29.467,34.5881
7238,2003/1/14,0:46:00,01-06.0400N,150-26.7800E,328,29.461,34.5838
7239,2003/1/14,0:47:00,01-06.2100N,150-26.6700E,327,29.452,34.5922
7240,2003/1/14,0:48:00,01-06.4900N,150-26.5000E,327,29.434,34.5949
7241,2003/1/14,0:49:00,01-06.6900N,150-26.3700E,327,29.436,34.5949
7242,2003/1/14,0:50:00,01-06.7100N,150-26.3500E,326,29.431,34.5984
7243,2003/1/14,0:51:00,01-07.0900N,150-26.1100E,327,29.427,34.5976
7244,2003/1/14,0:52:00,01-07.2700N,150-26.0000E,327,29.419,34.5973
7245,2003/1/14,0:53:00,01-07.3800N,150-25.9300E,327,29.398,34.5967
7246,2003/1/14,0:54:00,01-07.6400N,150-25.7700E,327,29.389,34.5914
7247,2003/1/14,0:55:00,01-07.8500N,150-25.6400E,327,29.383,34.5919
7248,2003/1/14,0:56:00,01-08.0500N,150-25.5200E,328,29.377,34.59
7249,2003/1/14,0:57:00,01-08.2300N,150-25.4100E,327,29.377,34.5885
7250,2003/1/14,0:58:00,01-08.5000N,150-25.2300E,327,29.378,34.5845
7251,2003/1/14,0:59:00,01-08.6800N,150-25.1200E,327,29.374,34.5892
7252,2003/1/14,1:00:00,01-08.9100N,150-24.9800E,327,29.371,34.5896
7253,2003/1/14,1:01:00,01-09.1200N,150-24.8500E,328,29.375,34.588
7254,2003/1/14,1:02:00,01-09.3200N,150-24.7200E,328,29.376,34.59
7255,2003/1/14,1:03:00,01-09.4800N,150-24.6200E,327,29.377,34.5908
7256,2003/1/14,1:04:00,01-09.7200N,150-24.4700E,327,29.377,34.592
7257,2003/1/14,1:05:00,01-09.8500N,150-24.3900E,327,29.373,34.5919
7258,2003/1/14,1:06:00,01-10.1200N,150-24.2200E,328,29.366,34.5908
7259,2003/1/14,1:07:00,01-10.3300N,150-24.0900E,328,29.364,34.5932
7260,2003/1/14,1:08:00,01-10.4600N,150-24.0100E,327,29.361,34.5919
7261,2003/1/14,1:09:00,01-10.7400N,150-23.8400E,327,29.358,34.5911
7262,2003/1/14,1:10:00,01-10.8700N,150-23.7500E,327,29.357,34.5918
7263,2003/1/14,1:11:00,01-11.1300N,150-23.5900E,327,29.381,34.5901
7264,2003/1/14,1:12:00,01-11.3300N,150-23.4600E,327,29.375,34.5908
7265,2003/1/14,1:13:00,01-11.5100N,150-23.3500E,327,29.371,34.5896
7266,2003/1/14,1:14:00,01-11.7300N,150-23.2100E,326,29.351,34.5898
7267,2003/1/14,1:15:00,01-11.9000N,150-23.1000E,326,29.349,34.5895
7268,2003/1/14,1:16:00,01-12.1200N,150-22.9500E,326,29.344,34.5903
7269,2003/1/14,1:17:00,01-12.3300N,150-22.8200E,328,29.343,34.5883